Lapse_Rate
7.6 8.0 8.3 7.7 8.2 8.0 7.7 7.9 8.1 7.8 8.0 8.0 7.4 7.4 7.5 7.3 7.4 7.6 7.4 7.6 7.3 6.7 6.5 6.4 6.7 6.8 6.5 6.2 6.3 6.5 6.5 6.2
7.5 8.3 8.4 7.9 7.9 8.2 8.2 8.1 8.2 8.1 8.4 7.9 7.7 7.8 7.7 7.6 7.7 7.9 7.7 7.5 6.8 6.5 6.9 6.4 6.4 6.5 6.5 6.3 6.1 5.9 6.4 6.3
8.7 8.5 8.2 8.2 8.0 8.2 8.3 8.0 7.9 8.2 7.9 7.9 7.7 7.6 7.6 7.6 7.6 7.3 7.6 7.6 7.4 7.2 6.9 6.8 6.9 6.3 6.2 6.2 5.8 6.2 6.1 6.4
7.8 8.0 8.0 8.1 7.5 7.2 7.8 7.8 7.5 7.5 7.6 7.5 7.4 7.0 6.8 7.0 7.5 7.5 7.4 7.7 7.8 7.7 6.9 7.1 6.4 6.2 6.4 6.4 6.2 6.1 6.3 6.5
7.2 7.6 7.3 7.8 7.7 6.9 7.3 7.5 7.6 7.3 7.5 7.5 7.6 7.7 7.4 7.5 7.8 8.0 7.9 7.8 7.7 7.6 7.7 7.2 6.9 6.7 6.5 6.6 6.4 6.4 6.5 6.3
6.7 7.0 7.0 7.0 7.0 7.2 7.0 6.9 7.4 8.0 7.9 7.7 7.5 7.5 7.7 7.3 7.0 7.4 7.5 7.6 7.5 7.5 7.8 7.8 7.7 7.3 6.8 6.7 6.6 6.6 6.6 6.3
6.1 6.5 7.3 7.4 7.0 7.1 6.8 6.6 7.0 7.8 8.2 7.8 7.8 7.6 7.5 7.6 6.7 6.9 7.2 7.6 7.6 7.6 7.6 7.7 7.7 7.4 6.9 6.7 6.6 6.5 6.6 6.2
5.8 6.1 6.7 7.0 7.3 7.4 7.5 7.3 6.5 6.3 7.3 7.8 7.9 8.1 7.8 7.5 7.4 6.7 6.9 6.9 7.5 7.5 7.5 7.4 7.5 7.3 6.9 6.7 6.6 6.6 6.5 6.4
5.9 5.9 5.9 6.1 6.4 6.9 7.3 7.6 7.7 7.0 6.4 6.9 7.7 7.8 7.9 7.9 7.9 7.0 6.6 6.7 6.6 7.1 7.2 7.4 7.4 7.2 6.9 6.7 6.6 6.5 6.3 6.3
6.2 6.4 6.3 5.5 5.9 7.2 7.4 7.8 8.0 7.7 7.9 7.4 6.9 7.3 7.8 8.1 7.8 7.0 7.0 7.1 7.1 7.0 7.3 7.1 7.2 7.1 6.9 6.7 6.6 6.4 6.2 6.0
7.0 7.0 7.1 6.8 6.4 6.0 6.2 6.3 6.1 6.3 6.5 6.6 6.8 6.9 6.9 6.7 6.5 6.6 5.9 6.1 6.7 6.3 6.8 7.0 6.6 7.0 6.9 6.7 6.7 6.3 6.2 6.0
6.3 6.2 6.2 6.0 6.0 6.1 6.0 6.1 5.8 5.3 5.4 5.6 5.8 6.0 5.9 6.4 6.6 6.5 5.9 5.8 6.4 6.3 6.5 6.3 6.0 6.5 6.6 6.7 6.5 6.4 6.3 6.1
6.1 6.2 6.5 6.5 6.9 7.6 7.5 7.3 7.5 7.2 6.9 6.0 5.8 6.6 6.5 6.7 7.4 7.7 7.7 6.6 6.9 6.5 6.4 6.2 6.0 6.2 5.4 6.7 6.0 6.4 6.1 6.0
7.2 7.8 7.7 6.6 7.7 7.5 7.6 7.6 7.2 6.8 7.1 6.6 6.3 6.7 6.4 7.3 7.4 8.0 7.7 7.1 6.7 6.4 6.6 6.1 6.2 6.4 5.4 3.9 5.3 5.8 5.6 5.4
7.7 7.6 7.4 7.7 8.1 7.7 7.6 7.4 7.5 7.4 7.2 6.9 7.0 7.2 6.9 7.4 7.6 7.6 7.4 7.2 6.2 5.8 6.3 6.6 5.4 5.6 5.6 4.5 4.9 5.4 4.8 5.2
7.6 6.9 7.6 7.8 7.5 7.3 7.3 7.1 7.2 6.7 6.7 6.5 6.8 6.9 6.7 6.8 7.2 7.6 7.6 6.9 6.3 6.1 5.9 6.4 5.8 5.1 5.2 4.1 4.1 5.0 5.0 5.0
7.6 7.5 7.7 7.9 7.8 7.4 7.4 7.4 7.1 7.3 7.1 6.9 6.9 6.8 6.8 6.8 6.5 6.8 7.3 7.3 6.5 6.1 6.1 5.8 5.6 5.9 4.6 3.9 4.8 4.6 5.1 5.2
7.1 7.6 7.7 7.7 7.6 7.8 7.5 7.2 7.2 7.2 7.2 6.7 6.6 6.7 6.5 6.6 6.6 6.6 7.0 6.7 6.1 5.9 6.0 5.9 6.0 5.9 4.7 4.5 4.7 5.6 5.3 5.4
7.2 7.5 7.5 7.3 7.3 7.4 7.7 7.8 7.6 7.4 7.3 6.9 6.2 6.2 6.2 6.4 6.2 6.2 6.2 6.0 5.7 5.5 5.8 5.9 5.8 5.0 5.0 5.4 5.4 5.5 5.7 5.5
Wind_Speed
10 8 7 9 13 17 16 13 12 8 6 7 5 8 7 6 6 9 15 14 17 12 9 10 14 9 8 9 8 9 10 10
5 6 14 7 14 18 18 15 13 9 4 6 5 8 8 9 9 14 17 16 17 14 10 10 11 9 10 10 10 11 10 10
8 10 10 9 13 15 15 15 15 12 9 6 3 7 6 9 9 11 17 19 20 14 11 11 12 10 11 12 12 9 9 11
11 9 11 8 5 13 15 15 14 13 11 7 2 6 3 7 10 11 13 18 20 17 10 13 13 11 11 14 14 14 12 9
11 16 16 12 7 11 14 14 16 13 13 10 12 9 9 9 10 10 12 15 17 17 12 15 15 10 13 12 12 13 13 12
11 13 12 13 12 11 9 11 16 16 16 12 10 11 9 7 10 13 14 14 16 17 14 15 15 11 13 15 15 12 13 11
8 8 10 11 9 8 10 11 9 14 15 14 13 13 11 8 9 9 11 12 12 15 15 14 14 12 15 13 14 15 13 12
9 8 7 4 3 4 3 6 9 8 12 13 14 14 14 13 12 12 14 12 10 14 14 14 14 12 12 14 15 13 13 12
18 17 11 10 11 10 6 5 7 6 9 11 13 15 11 9 10 8 10 12 13 15 13 12 14 14 14 14 12 11 10 8
20 21 18 15 17 17 14 10 8 6 12 11 12 12 13 11 8 6 7 8 9 14 16 15 15 15 15 15 11 12 8 5
17 15 15 17 13 11 16 18 17 11 8 12 11 12 12 11 8 9 7 8 11 13 15 14 17 16 15 14 11 8 9 5
17 14 14 13 15 16 14 15 15 14 12 12 14 12 12 9 10 9 8 6 9 13 13 13 11 9 13 11 10 11 12 8
17 11 15 14 13 22 21 16 14 11 1 5 2 7 10 11 11 11 10 10 8 11 10 10 9 7 4 11 13 10 12 9
20 12 13 16 12 14 10 6 5 5 3 10 14 11 10 10 11 12 10 13 10 9 9 10 9 10 8 4 11 10 9 8
14 12 9 10 12 10 7 9 12 5 3 2 4 9 11 11 12 12 14 14 15 12 9 9 7 5 10 9 11 14 11 10
12 11 7 7 10 6 3 1 5 6 6 6 9 10 9 9 11 13 13 15 14 15 15 13 11 10 8 11 12 14 13 12
10 8 9 8 12 11 9 4 5 2 6 6 5 7 9 10 11 12 15 14 16 17 16 17 13 8 16 18 14 14 12 11
8 9 8 6 6 9 9 7 4 3 3 4 7 8 10 10 10 13 13 15 15 15 15 16 13 14 20 20 21 12 10 10
8 6 8 7 6 8 6 5 4 1 2 4 5 8 9 10 11 12 12 13 14 14 13 14 13 12 20 21 19 13 11 11
Wind_Direction
272 305 304 175 128 152 163 172 176 172 168 158 148 175 160 153 159 156 153 156 148 146 161 170 176 176 180 158 154 146 144 144
287 222 271 186 139 151 162 161 169 165 162 151 155 180 175 176 175 165 168 167 167 170 182 172 181 169 172 152 151 149 148 134
297 297 231 170 149 155 157 162 166 176 176 187 173 184 198 180 173 170 171 173 179 181 173 174 178 174 167 163 158 154 153 151
25 45 61 55 128 158 155 168 167 178 177 173 152 189 193 198 186 180 186 181 176 182 173 176 184 185 172 170 168 165 159 172
46 34 27 17 8 153 170 170 171 177 176 180 194 200 194 201 196 186 183 182 181 183 184 178 186 181 171 176 170 169 167 171
48 30 28 31 23 11 12 200 179 174 179 180 193 216 219 204 200 183 184 191 193 187 186 184 184 179 176 175 174 172 175 175
54 34 31 14 16 10 360 347 206 179 181 183 184 206 222 213 208 198 190 183 188 197 188 185 185 182 177 175 176 173 176 185
4 338 325 309 327 333 338 325 316 181 185 184 190 199 216 225 213 198 188 182 190 195 190 189 183 181 173 173 176 182 183 184
337 336 345 335 327 328 283 268 264 181 189 203 204 206 211 215 215 213 201 191 182 187 189 195 183 182 176 180 176 182 183 173
326 320 312 310 311 301 291 269 250 235 199 198 208 209 208 206 203 211 196 190 187 177 192 188 189 183 176 175 173 174 171 163
301 290 288 288 277 281 277 279 246 236 195 198 202 205 209 209 196 188 188 178 177 179 189 204 186 179 171 169 165 156 144 142
308 296 293 301 291 283 266 259 242 218 221 203 200 209 203 190 188 177 169 159 171 171 179 190 178 189 157 149 151 149 140 134
297 310 300 301 294 286 263 258 245 219 320 2 202 212 188 186 185 175 160 165 167 165 164 160 142 141 177 142 148 148 139 126
326 326 342 307 311 360 323 284 98 241 186 170 190 179 196 189 183 174 166 158 150 151 142 145 158 140 124 139 128 113 99 101
302 343 334 328 350 359 357 2 13 13 78 108 111 178 195 180 169 165 158 153 143 122 108 103 97 81 119 119 108 105 98 92
354 279 337 332 321 346 3 3 115 208 203 184 192 194 184 171 165 157 145 144 135 121 122 117 114 112 107 120 117 107 107 104
311 338 321 350 351 339 317 211 229 304 255 211 190 171 156 162 151 149 137 134 135 136 135 130 130 118 118 116 130 109 107 108
319 339 348 352 319 310 352 3 73 271 234 152 168 165 152 143 140 142 136 142 139 137 133 133 139 136 137 129 112 112 130 133
321 315 328 319 4 45 47 24 18 358 95 110 124 140 138 137 134 136 133 135 134 134 140 140 135 144 135 123 129 135 143 140